Theta_e
316 316 317 317 317 317 317 317 317 318 319 319 319 319 319 319 319 319 320 320 320 320 320 320 320 319 319 319 319 319 319 314 312 309 311 312 321 327 341 342 345 340 340 325 336 333 328 327 324 325 325 325 328 330 338 340 339 336 324 319 315 318 317 321 321 321 325 325 327 329 330 331 328 333 334 337 338 335 335 335 337 339 339 341 343 346 346 347
316 316 316 316 316 316 317 317 317 318 318 318 318 319 319 319 319 320 320 320 320 320 320 320 319 319 319 319 319 319 317 314 309 309 309 318 332 333 335 345 350 349 338 317 325 326 323 321 321 323 322 320 331 329 338 334 341 327 322 319 315 318 321 327 326 326 326 324 329 329 330 330 329 331 333 329 330 332 331 332 334 333 336 341 344 344 344 345
317 316 316 316 316 317 317 318 317 317 318 318 318 318 318 319 319 319 319 319 319 320 320 320 319 319 319 319 319 319 315 310 311 308 313 336 333 338 338 340 345 352 320 311 318 327 321 320 321 322 321 319 325 326 334 331 335 331 322 316 319 325 326 332 329 326 327 329 327 329 329 329 331 331 334 328 329 331 329 328 330 330 332 337 340 342 343 344
316 316 316 316 316 316 317 317 317 317 318 318 318 318 318 318 319 319 319 319 319 319 319 319 319 319 319 319 319 317 313 310 308 312 317 337 345 337 341 337 340 350 320 316 318 326 324 322 321 321 320 318 322 327 326 331 327 329 324 319 321 326 323 326 329 328 328 329 327 328 330 328 330 332 330 328 327 328 330 332 330 330 332 336 339 341 342 343
316 317 316 317 317 317 317 318 318 318 318 318 318 318 318 318 318 318 319 319 319 319 319 319 318 319 319 319 319 316 308 300 305 316 320 356 352 343 339 339 343 340 323 319 318 321 324 320 320 319 319 316 320 323 324 330 332 326 324 327 326 327 323 328 334 330 328 331 331 330 325 324 331 330 328 328 323 324 329 333 334 334 335 336 338 340 342 342
316 316 316 316 316 317 317 317 317 317 317 318 318 318 318 318 317 318 318 318 319 318 319 319 319 319 320 320 316 314 308 295 310 314 362 357 357 349 341 341 348 333 322 318 315 316 317 317 318 315 314 315 317 315 321 326 331 319 322 326 328 327 325 331 330 335 328 328 330 325 327 329 328 326 329 329 328 330 336 337 336 336 337 339 341 341 340 340
316 316 316 316 317 316 316 317 317 317 317 317 317 317 317 317 317 317 317 318 318 318 319 319 319 319 319 320 315 313 307 306 313 315 363 357 354 351 343 343 350 326 319 315 314 313 314 313 315 314 314 314 316 318 320 323 326 322 318 322 324 327 325 329 328 331 328 328 325 328 330 327 327 323 329 328 332 336 338 338 338 338 338 339 339 340 339 340
316 316 316 316 316 316 316 316 317 317 317 317 318 318 317 317 317 317 317 317 318 318 318 319 320 320 320 314 312 307 304 302 310 316 332 338 351 347 342 336 333 322 317 313 312 311 313 310 310 315 314 312 315 317 321 319 322 320 319 322 323 326 328 329 328 328 328 328 330 329 326 325 327 326 329 326 333 337 338 339 337 337 337 337 338 338 339 340
316 316 316 316 317 316 317 317 317 317 317 317 317 317 317 316 316 317 317 317 317 318 318 319 320 320 321 314 311 305 304 314 316 316 322 340 342 338 333 332 326 319 316 314 313 313 312 310 311 313 310 313 318 316 319 318 315 321 321 323 323 327 330 330 329 329 327 328 329 327 325 327 327 331 325 326 336 338 339 337 337 336 335 335 336 338 338 339
316 316 316 316 316 316 316 316 316 317 317 317 316 316 315 316 316 317 317 317 317 317 318 319 320 320 317 313 310 298 309 319 323 321 324 340 336 331 330 331 323 318 314 313 313 311 310 311 312 314 313 314 318 316 319 319 317 323 322 322 322 326 329 330 328 328 328 328 330 326 325 325 327 326 318 329 337 338 337 335 336 335 334 335 335 337 339 339
316 316 316 316 316 316 316 317 317 317 316 316 316 315 315 316 316 316 316 317 317 318 318 320 323 319 312 312 303 298 315 319 318 322 330 336 331 327 326 328 322 317 315 314 313 313 313 313 315 316 314 310 316 315 318 320 324 322 322 321 321 323 329 329 328 327 328 326 329 328 327 326 328 325 319 332 337 338 335 334 334 334 333 334 335 335 338 339
316 315 316 316 316 315 316 316 316 316 316 315 315 315 315 316 315 315 315 317 318 318 319 321 323 319 315 310 305 304 318 321 318 317 322 330 328 328 327 328 323 318 315 312 313 314 314 314 314 313 307 315 308 316 316 322 322 322 322 316 317 319 323 326 325 326 327 325 329 328 324 321 322 320 328 334 336 336 335 334 334 333 333 334 334 335 337 338
315 315 315 315 315 315 316 316 315 315 315 314 314 314 315 314 314 315 316 317 318 319 321 323 323 318 313 301 307 315 317 318 317 317 317 317 318 321 326 327 323 320 317 314 312 314 315 314 314 310 313 315 314 310 319 323 321 322 321 317 315 314 314 324 327 327 325 326 329 327 312 314 320 324 331 335 335 335 333 332 333 333 333 334 334 335 336 338
315 315 315 315 315 315 316 316 315 315 314 314 314 313 313 313 314 316 318 320 320 318 322 324 321 316 311 306 316 320 320 319 319 318 317 320 316 317 322 324 323 320 319 315 314 315 315 315 314 313 315 312 312 323 319 318 321 313 315 314 308 305 308 323 325 326 323 327 327 327 311 314 319 324 332 334 335 332 330 332 332 333 333 333 334 334 335 337
314 315 315 315 315 315 315 315 314 313 314 313 312 312 312 311 315 318 323 322 319 322 323 323 320 313 307 307 318 321 335 329 321 319 321 318 315 316 318 320 320 318 317 316 315 316 316 315 313 310 308 315 316 313 310 309 310 310 306 303 305 304 305 321 326 325 320 325 327 323 312 314 320 322 332 334 334 333 330 331 332 332 333 333 333 334 335 336
314 314 315 314 315 315 314 313 313 313 313 312 311 311 313 313 318 322 323 322 324 324 322 316 315 314 309 303 313 330 329 319 320 323 323 321 318 314 318 317 319 318 317 315 317 318 317 316 310 310 310 313 311 307 304 302 303 307 304 301 303 305 306 313 323 325 325 324 325 322 311 313 318 323 330 334 333 332 330 330 331 332 332 333 333 334 335 335
314 314 314 314 315 314 314 313 312 313 311 311 310 311 313 316 321 323 324 324 324 324 319 315 316 316 303 315 324 316 314 320 325 323 321 322 320 319 317 315 313 314 315 315 315 315 315 313 314 313 314 308 308 306 299 298 298 300 304 301 305 306 306 305 315 323 324 322 319 322 316 314 318 323 327 332 333 331 329 330 331 332 332 333 333 334 334 334
314 314 314 314 315 314 314 312 312 312 310 309 309 310 310 316 322 323 322 322 322 319 318 320 317 311 305 314 308 312 317 314 315 314 317 321 321 319 317 313 313 314 314 312 314 310 313 308 311 305 307 307 305 302 298 296 299 299 300 301 302 306 308 308 308 314 319 320 316 318 317 316 320 323 326 329 332 331 330 330 331 331 332 333 333 333 334 334
314 313 314 314 314 313 313 312 311 310 309 310 311 315 318 320 316 314 315 318 304 295 294 307 308 294 293 304 314 312 312 314 312 312 312 317 319 319 317 317 314 312 309 308 308 310 310 307 308 302 301 303 304 304 302 302 305 303 304 303 304 303 304 306 312 317 317 315 314 315 314 316 319 322 325 327 329 328 329 331 331 332 332 332 333 333 334 334
314 314 314 313 313 313 312 312 310 309 309 307 306 306 305 298 295 300 312 303 296 296 296 297 311 309 307 306 306 309 310 311 307 310 313 318 317 315 313 312 311 311 308 304 306 308 310 301 299 300 302 305 306 306 305 305 306 306 306 305 305 305 307 311 312 316 318 315 314 315 316 316 318 321 323 325 327 326 326 327 330 331 331 332 332 333 334 334
314 313 314 313 312 311 312 311 310 309 309 306 306 300 293 294 291 289 295 296 299 300 298 298 299 298 299 303 304 303 301 304 309 307 309 316 317 311 308 308 306 304 306 307 305 309 309 301 301 304 305 306 306 306 305 304 305 305 304 304 304 306 305 310 311 315 318 314 312 315 315 314 317 321 323 325 325 324 324 326 328 330 331 332 332 332 333 335
313 314 313 312 311 311 311 310 309 309 308 305 305 299 299 299 300 301 297 292 298 300 300 300 301 299 302 302 304 304 304 299 300 304 311 312 312 307 306 306 303 302 306 307 305 303 301 300 303 306 308 308 306 306 306 304 303 304 303 302 301 303 307 311 312 314 316 316 311 313 313 314 317 321 323 324 324 325 326 327 328 329 330 330 332 333 333 334
314 314 313 312 311 310 310 309 308 307 306 305 303 299 300 304 305 304 301 296 293 300 299 299 297 298 299 303 304 306 299 297 296 302 307 315 308 308 307 304 302 303 305 306 301 299 297 301 305 308 309 307 306 305 305 304 304 302 301 300 299 304 303 301 308 311 314 313 310 313 312 313 319 321 322 325 325 325 327 328 328 330 329 330 332 333 333 333
314 314 313 311 311 310 310 308 307 305 305 305 306 303 305 305 304 303 298 290 290 296 300 301 300 300 299 298 304 302 298 299 299 299 308 309 305 309 306 304 302 301 303 305 303 301 300 304 308 308 308 308 306 306 303 302 300 303 303 301 301 302 304 304 305 309 311 312 315 313 312 309 317 316 318 323 326 326 326 327 328 329 331 332 334 335 335 334
314 313 313 311 310 310 307 307 298 302 306 307 304 307 306 305 305 303 296 291 291 293 303 304 305 304 304 309 307 300 301 301 301 305 310 310 307 306 304 306 303 299 302 306 305 302 303 307 309 307 307 307 306 304 304 302 299 301 304 303 304 305 305 306 308 307 303 301 309 312 301 302 312 316 317 321 323 323 325 325 325 326 328 330 331 333 335 336
313 313 312 310 311 309 308 298 298 304 304 304 305 308 306 305 304 303 296 286 284 294 304 298 305 299 309 302 305 303 303 296 302 304 307 310 313 307 305 302 304 298 302 305 304 304 304 309 308 306 306 306 306 305 306 306 300 298 301 306 305 305 306 306 306 305 296 296 304 314 303 297 305 313 316 319 320 320 323 324 325 326 327 328 331 333 334 335
313 312 311 310 310 308 300 298 302 306 302 302 308 309 306 304 304 301 292 285 283 297 297 302 303 299 304 301 302 304 288 291 304 304 304 309 307 311 302 300 303 305 307 310 304 301 307 307 307 307 306 305 304 303 307 307 302 299 305 306 306 304 304 304 305 304 298 304 305 310 310 301 299 306 317 319 318 318 320 322 323 325 326 327 330 333 333 335
312 311 310 309 308 308 301 302 303 303 304 307 310 308 305 304 303 300 290 278 279 298 292 296 299 307 303 302 303 299 297 301 296 301 304 306 309 306 304 300 300 302 307 308 298 306 308 305 307 306 304 304 302 306 309 309 304 303 307 308 306 306 305 306 305 303 302 300 295 299 308 301 298 306 312 318 315 316 317 320 321 323 326 327 329 332 334 335
310 310 310 309 308 307 306 303 304 303 308 310 308 308 307 303 300 291 285 277 293 292 306 295 307 302 300 302 299 300 300 303 295 302 306 307 309 307 300 302 302 304 309 309 303 305 309 309 309 309 306 302 306 309 311 310 305 307 308 309 309 308 308 307 304 302 302 297 294 297 303 298 294 301 305 316 315 314 317 319 321 322 325 327 329 331 334 335
311 310 310 309 306 306 305 307 304 308 310 308 309 309 304 300 293 288 280 276 293 285 296 297 297 292 298 294 295 298 297 300 303 303 305 303 306 308 307 309 304 303 304 309 308 309 309 314 314 310 307 308 308 310 312 311 310 310 309 307 305 306 306 306 303 300 298 293 296 299 301 301 294 300 305 308 313 317 318 320 321 322 324 327 330 331 332 334
309 309 309 309 302 306 306 302 306 308 309 311 312 305 299 294 289 281 276 283 293 291 296 294 292 297 293 291 290 297 296 298 299 300 298 304 303 305 305 302 305 301 299 301 305 307 309 309 310 311 314 313 308 307 312 313 312 309 305 304 302 299 300 299 299 299 292 289 295 299 300 301 292 293 302 311 317 320 320 319 320 321 322 326 329 331 333 334
308 307 309 306 307 309 303 303 308 311 311 312 307 297 291 282 285 277 280 296 283 289 289 289 293 292 292 294 293 292 293 296 297 298 295 297 298 299 300 296 298 292 293 295 293 304 304 306 309 310 317 312 309 303 305 310 310 308 304 302 296 291 293 290 292 291 290 288 295 298 299 295 295 295 302 307 311 315 320 322 322 322 323 325 328 330 333 334
307 307 307 309 312 308 309 311 313 312 312 311 299 293 285 281 275 284 283 288 283 291 288 294 291 291 292 292 290 293 296 290 296 296 297 298 296 299 303 301 301 299 291 297 294 296 300 307 308 308 308 314 310 302 297 301 305 305 302 298 294 289 288 285 286 289 289 293 298 296 299 294 294 299 303 305 310 314 315 319 323 324 324 325 328 330 333 334
306 307 305 309 310 311 313 314 314 313 311 303 295 290 288 279 281 293 286 287 287 293 293 291 291 292 292 289 291 294 289 294 294 294 297 293 295 293 298 302 302 300 299 294 294 293 289 292 301 305 301 309 309 306 303 301 303 304 306 301 298 294 291 287 287 288 288 287 292 297 293 289 294 296 303 306 308 311 315 317 322 325 326 326 329 331 333 334
306 306 308 309 310 312 313 314 314 314 305 297 292 286 280 279 285 283 284 287 290 291 289 293 289 289 289 291 293 294 292 288 294 293 293 292 289 293 292 297 302 301 299 293 295 295 294 293 300 307 306 307 306 309 307 304 303 305 305 303 297 297 294 289 288 289 290 291 292 293 291 293 297 301 307 307 307 308 314 316 319 323 325 326 328 330 332 334
305 306 309 307 311 313 313 311 313 307 298 294 287 283 281 286 283 289 286 293 291 288 289 290 290 286 287 288 292 291 296 290 292 292 291 291 293 293 297 296 295 298 293 289 294 290 294 292 301 304 307 305 306 308 307 307 295 301 302 297 300 301 301 296 299 296 295 292 290 294 296 297 298 300 303 303 304 306 309 314 317 322 325 326 327 330 332 334
302 306 304 308 310 313 314 312 307 301 297 292 286 281 287 290 293 290 294 290 290 290 288 282 284 285 284 285 287 290 291 293 291 290 286 293 290 296 295 296 299 298 298 295 292 299 291 292 300 302 300 306 308 308 308 308 303 301 298 300 303 306 303 297 287 292 290 285 288 294 293 291 293 290 301 302 301 303 306 309 314 322 325 325 328 330 332 334
301 303 307 309 311 311 310 310 307 299 295 290 285 291 293 289 295 291 293 291 291 292 286 284 285 289 285 285 285 288 291 288 288 289 286 291 286 299 295 293 299 297 298 299 293 296 299 291 297 302 303 305 308 307 304 308 308 304 303 306 302 292 294 295 293 288 285 286 286 290 294 294 293 294 298 300 302 302 303 306 310 320 324 325 328 330 332 334
302 302 300 305 309 310 310 310 304 298 292 287 285 287 294 291 295 292 293 293 293 290 285 287 284 288 287 285 288 290 290 285 289 287 285 289 285 295 295 296 294 297 298 298 295 297 299 290 293 302 302 305 306 304 296 301 307 307 305 305 304 299 296 292 295 291 291 285 289 287 292 289 297 297 301 301 303 304 303 304 305 321 324 326 328 330 331 333
299 297 296 309 309 310 310 306 299 294 290 285 286 288 292 290 292 294 293 293 290 288 288 286 288 284 287 288 289 286 290 289 288 288 288 290 289 298 295 298 293 295 297 298 296 299 295 299 288 298 303 303 298 301 299 301 299 300 299 299 302 301 300 298 298 294 290 287 286 286 286 291 297 304 305 305 305 305 305 305 305 318 324 326 328 330 331 333
301 297 297 306 307 310 306 299 291 289 288 289 291 290 291 291 293 293 294 295 293 296 290 288 287 285 287 286 287 290 288 289 289 287 288 290 291 287 297 295 296 294 297 295 295 296 295 294 290 294 295 295 298 305 305 304 304 302 300 298 301 298 294 294 289 299 295 291 285 287 288 293 302 308 307 306 307 307 307 306 306 317 324 326 328 330 331 332
295 288 293 305 308 307 300 290 291 293 289 287 287 292 291 299 293 291 293 294 293 290 295 291 291 289 288 287 288 288 288 288 289 289 290 288 292 292 296 299 297 297 293 290 292 296 298 296 292 290 294 296 301 305 308 308 307 305 303 299 302 300 297 294 288 291 295 293 299 294 289 293 303 307 308 308 308 308 309 308 306 315 325 326 328 330 331 333
293 291 302 306 308 304 296 288 293 291 288 292 295 294 296 294 293 294 292 293 291 295 290 291 290 288 290 289 289 288 290 287 289 288 290 291 292 295 297 298 298 296 296 292 295 297 305 295 291 293 297 302 305 307 306 307 307 304 304 302 301 299 300 298 295 292 294 293 292 291 290 293 302 306 308 308 309 310 310 308 307 315 325 326 328 329 330 331
294 294 298 306 307 303 293 285 286 287 291 293 294 292 296 294 293 292 292 293 291 290 290 290 292 292 289 291 290 288 291 284 291 290 289 293 291 298 297 297 298 294 294 292 290 296 290 292 289 286 289 292 297 300 301 305 306 303 302 303 303 303 302 298 299 296 294 293 294 289 287 293 300 308 308 308 309 308 307 308 309 312 323 325 327 329 329 330
296 298 299 300 305 301 291 292 289 288 290 290 290 290 291 292 295 294 293 292 294 293 291 290 293 292 291 292 290 291 292 290 287 292 292 293 291 297 297 297 297 295 297 299 303 302 293 290 288 283 285 285 286 286 288 293 298 303 304 304 303 302 300 297 295 294 289 295 296 291 289 297 301 305 304 305 306 306 307 308 310 315 320 324 326 328 329 329
292 284 293 295 298 297 296 298 294 291 289 290 288 290 291 289 293 295 295 293 294 293 292 292 292 292 291 290 288 288 288 292 290 289 290 289 292 295 297 296 297 297 301 304 303 299 292 292 291 289 288 288 291 294 300 302 301 298 302 303 303 302 302 300 296 292 291 292 294 294 297 298 300 303 302 305 304 305 305 307 308 308 317 325 326 327 328 329
294 287 289 287 294 294 292 293 292 292 288 292 285 290 288 290 291 292 296 289 294 292 292 292 291 288 289 288 287 287 289 288 291 290 289 290 292 294 297 296 297 299 303 300 302 297 293 288 290 291 292 295 296 296 300 302 300 301 301 302 303 302 300 299 297 295 296 294 288 297 299 298 299 302 302 305 308 309 310 310 310 310 314 322 325 326 335 328
285 291 294 295 288 285 287 288 292 290 292 293 289 293 289 289 289 287 293 295 294 295 289 292 293 292 290 288 288 285 287 287 289 287 291 291 291 293 293 296 296 300 300 296 299 295 290 286 291 291 290 292 293 295 298 301 303 304 304 303 302 303 301 298 297 299 300 295 293 298 300 299 300 302 304 303 306 310 314 314 314 315 315 321 324 325 327 328
295 295 294 298 289 291 290 291 292 292 291 292 291 292 289 289 288 290 289 290 292 291 293 284 288 289 290 291 289 285 286 283 284 290 289 290 290 290 290 293 296 298 296 294 295 296 292 287 291 292 289 291 293 296 301 302 303 303 302 303 304 303 302 301 300 301 302 299 300 301 302 301 303 305 304 305 307 313 316 316 319 318 316 320 323 323 326 327
293 292 291 297 295 292 291 291 292 291 288 293 289 290 290 289 287 289 292 290 287 289 293 289 289 290 290 289 289 286 288 289 289 285 290 291 290 291 290 292 291 295 295 292 293 296 291 288 295 291 288 289 295 300 300 303 303 300 302 303 304 304 303 302 301 301 304 304 303 305 303 303 304 309 311 310 310 310 312 314 316 318 318 321 322 323 324 326
302 302 300 293 289 290 292 292 290 289 287 289 287 291 291 289 287 289 290 294 291 289 291 288 290 290 291 290 289 290 293 291 291 290 291 291 286 294 291 292 294 290 292 291 292 292 293 288 292 290 285 287 294 295 296 300 302 301 300 301 302 302 301 301 300 301 301 300 302 304 301 301 305 311 310 311 310 310 309 311 313 317 319 321 321 322 322 324
305 307 304 297 288 293 289 290 290 288 284 290 292 291 291 290 292 292 288 293 294 294 293 293 292 290 289 289 288 290 293 293 293 294 294 294 295 295 296 296 296 292 291 291 293 290 291 289 287 287 284 285 292 294 295 300 297 296 298 301 302 301 301 303 303 304 305 305 301 300 300 304 307 311 309 308 309 309 309 309 312 314 318 324 325 324 324 326
Wind_Speed
21 23 22 21 22 23 23 22 21 21 22 22 23 22 22 21 21 21 20 21 20 20 19 17 17 17 15 15 14 13 10 8 9 6 8 19 10 21 10 8 9 18 18 0 4 10 7 9 9 8 7 8 6 6 9 10 6 6 4 2 6 7 3 5 3 3 10 7 5 6 8 6 6 8 7 2 8 13 14 8 7 10 9 12 17 18 20 19
23 24 23 24 24 23 22 22 21 22 24 23 22 20 21 21 21 21 20 20 20 20 19 18 17 16 15 14 13 12 7 7 10 12 21 11 19 19 19 13 6 11 15 6 8 12 11 10 10 11 8 8 7 8 8 7 9 7 3 5 9 4 6 3 3 3 10 6 11 11 8 9 10 14 9 9 15 15 11 11 11 13 13 16 19 21 20 20
24 24 23 24 24 23 23 22 23 24 22 21 20 21 21 21 21 20 20 19 19 18 18 18 16 15 14 13 11 9 5 5 6 15 22 25 26 22 20 20 12 13 18 14 11 12 12 13 9 10 7 6 8 8 9 7 9 9 5 6 9 8 5 3 5 3 3 15 13 11 10 11 9 10 6 12 14 16 13 13 14 14 18 21 21 21 20 18
25 24 24 24 23 24 23 24 23 22 22 22 23 21 21 21 21 21 20 19 19 18 17 17 16 14 12 12 9 4 4 5 6 8 7 10 20 26 22 22 18 14 9 9 11 11 8 7 8 10 6 7 6 8 8 9 6 6 6 8 8 8 6 7 6 4 4 11 12 12 14 12 11 11 9 10 13 14 11 16 20 20 22 22 22 21 20 20
23 23 24 24 25 24 24 24 24 23 22 22 21 22 21 20 20 21 20 19 17 17 16 15 15 13 10 7 6 1 1 5 5 5 6 6 11 24 25 23 20 14 12 5 7 7 7 10 9 8 6 7 7 5 12 9 9 2 12 14 13 2 5 9 4 6 4 6 7 5 10 15 12 11 8 12 11 12 14 15 17 22 24 25 24 22 20 20
24 24 24 24 24 24 24 25 24 24 23 21 22 21 21 21 20 20 20 19 16 15 15 14 13 11 9 5 3 3 0 2 1 5 5 10 2 20 24 22 22 15 11 8 10 9 9 7 11 9 7 4 9 10 8 12 9 9 7 12 14 11 8 2 4 6 6 2 8 9 6 3 11 7 9 14 9 9 15 18 19 22 24 24 23 22 21 21
25 26 24 24 25 25 25 25 25 24 23 22 22 20 20 20 20 19 19 18 17 14 13 13 10 8 6 4 1 2 1 11 7 9 1 11 7 14 22 19 19 14 12 10 8 9 11 9 11 11 8 8 9 12 11 7 12 10 10 8 12 12 12 6 6 6 5 6 5 5 9 6 8 5 4 7 5 12 16 19 20 19 20 20 22 22 23 22
26 25 25 25 26 25 25 25 26 25 24 23 21 20 20 20 20 19 18 17 16 15 12 11 8 4 6 3 2 1 1 10 18 13 15 12 9 14 22 15 16 13 13 14 14 13 12 12 13 10 9 11 6 11 9 11 10 12 14 13 10 10 12 7 6 8 7 8 5 6 5 9 8 4 1 6 11 16 17 17 19 20 20 19 22 21 20 20
25 26 26 26 26 26 26 26 26 26 25 24 22 21 21 21 19 18 17 16 16 14 12 8 5 2 1 2 2 2 9 9 6 7 4 7 12 16 18 12 12 16 13 11 12 14 11 12 11 11 8 13 10 10 10 8 9 13 16 12 10 9 10 10 10 11 9 5 6 5 7 5 7 2 4 1 16 18 19 19 20 20 20 19 20 20 20 19
27 26 26 27 27 27 27 27 27 26 25 25 23 23 23 23 20 16 17 16 16 13 10 7 4 3 3 2 2 1 9 5 2 6 6 10 13 17 15 16 16 12 9 11 9 9 12 9 14 11 6 7 8 11 8 10 10 6 12 13 13 11 9 10 11 11 9 5 6 6 7 7 6 6 5 3 17 19 19 20 19 20 20 19 18 17 19 21
27 27 27 27 28 28 27 27 28 27 27 25 25 24 23 22 19 16 16 16 15 13 6 3 6 4 3 2 5 9 5 1 4 10 6 12 13 14 11 14 17 13 13 11 12 13 12 8 10 5 6 6 5 11 10 10 11 11 11 9 14 14 12 10 11 10 6 4 7 8 2 6 3 3 4 13 17 21 21 19 19 18 18 18 19 15 17 17
27 28 28 28 29 29 29 28 27 27 27 28 26 24 23 22 19 17 18 16 14 10 6 8 10 4 2 2 6 11 3 1 3 6 8 1 7 11 16 17 18 17 14 13 13 12 11 12 8 8 5 6 9 3 10 14 11 12 9 12 13 9 10 10 11 9 9 4 11 9 7 4 3 4 11 18 17 19 21 20 19 18 16 17 18 13 15 16
27 28 28 28 29 30 30 29 28 28 27 28 26 22 24 25 21 17 17 14 7 7 7 9 8 4 3 1 14 18 12 12 10 14 13 5 8 4 7 14 18 17 17 14 14 13 12 11 9 7 12 3 2 7 2 3 7 10 10 9 9 10 9 14 10 10 10 3 14 9 4 6 8 9 17 18 18 19 19 18 18 16 16 16 15 13 13 14
27 27 29 29 28 30 30 29 29 28 27 26 24 26 25 25 20 17 16 11 8 7 8 9 6 5 3 8 6 4 9 10 10 10 12 6 5 5 6 9 14 12 11 11 11 8 11 10 6 8 7 8 7 3 11 9 4 6 5 4 7 8 6 13 13 13 12 7 17 11 5 6 5 12 17 18 21 21 19 19 19 17 16 16 15 13 13 15
27 27 28 29 29 29 29 29 27 27 27 25 26 27 25 28 18 16 12 1 4 9 10 8 4 6 3 10 9 18 25 13 12 16 11 4 6 2 9 8 10 10 11 13 6 7 8 7 5 7 7 7 10 12 10 6 3 2 3 7 4 7 4 10 12 14 13 8 16 12 4 7 8 11 19 18 20 21 20 19 19 18 17 17 15 15 15 13
26 26 27 30 28 29 28 29 28 25 27 28 28 28 23 25 14 11 7 8 8 12 8 6 3 3 2 11 6 10 1 3 7 14 13 7 6 7 11 12 12 10 7 7 7 5 6 6 9 7 8 8 9 7 6 4 6 3 7 3 4 4 6 3 14 13 18 9 15 16 6 8 12 13 21 19 21 20 20 20 20 20 20 19 16 15 15 13
26 26 27 28 28 28 28 29 28 26 28 29 29 27 24 20 12 4 9 10 5 5 5 2 5 5 1 5 9 6 1 2 3 0 4 11 12 10 8 10 7 11 10 8 9 6 7 7 3 7 8 9 7 4 5 8 8 6 2 6 5 7 3 4 5 14 14 11 11 15 8 7 8 15 21 21 21 20 19 20 20 19 17 18 16 16 16 15
26 27 27 26 28 28 27 29 29 26 27 28 26 21 18 22 4 9 5 2 3 2 3 4 3 2 10 2 6 5 6 8 7 10 8 8 16 12 8 10 7 14 11 6 6 9 7 6 6 7 5 9 8 8 11 14 10 7 3 3 6 5 6 7 7 7 13 15 12 17 16 7 14 16 19 21 21 20 19 19 20 19 18 17 16 16 18 15
26 28 25 25 25 27 26 28 29 26 24 26 21 17 9 2 2 1 1 1 3 2 2 1 2 4 6 4 5 11 7 9 14 12 6 7 8 12 9 8 9 13 8 8 4 11 5 4 5 6 12 13 15 13 12 4 2 7 5 5 4 7 6 6 9 7 11 13 13 12 14 11 17 20 20 19 20 20 19 19 17 17 17 17 17 17 17 16
26 26 24 24 27 25 26 25 28 26 22 15 11 8 4 10 5 1 2 8 9 13 17 16 9 11 18 20 16 9 11 9 8 6 7 5 7 12 11 8 8 11 10 11 8 14 4 9 11 16 16 13 11 11 7 5 6 4 5 7 9 8 9 8 10 9 7 7 13 14 15 11 17 21 21 20 19 18 18 19 17 17 17 17 17 18 19 19
25 25 24 26 28 28 26 26 27 25 22 5 6 6 8 12 15 12 17 11 18 11 13 19 19 18 16 12 12 10 12 9 3 10 12 7 6 8 9 8 9 12 13 12 7 4 7 9 15 18 9 9 10 9 6 5 7 10 7 6 9 9 9 11 12 8 9 8 10 13 12 10 18 18 20 18 20 20 19 20 21 21 21 19 21 20 20 19
25 25 26 27 27 28 28 26 27 24 15 3 4 7 4 7 3 6 8 15 26 18 12 21 14 16 15 17 18 9 11 11 21 17 10 3 5 11 7 10 11 13 10 10 7 6 11 16 22 13 8 5 7 10 10 11 10 9 9 8 6 8 7 11 12 10 7 12 9 13 13 12 17 20 22 22 22 19 20 22 23 23 21 17 19 20 19 16
25 24 26 27 26 28 29 26 26 22 5 7 5 5 7 8 5 4 4 9 15 15 8 6 7 13 15 11 11 3 10 12 13 14 4 0 6 14 8 11 11 9 11 13 14 11 10 20 17 8 9 8 8 11 14 12 11 9 9 8 10 8 6 9 13 7 8 9 7 13 16 10 14 17 23 24 23 19 22 24 22 22 23 21 22 21 19 19
23 23 26 27 26 27 29 27 22 8 9 10 5 6 9 6 6 6 6 4 7 16 2 4 4 3 5 5 1 9 11 10 8 18 10 4 5 10 9 13 11 9 13 17 17 15 18 0 10 9 12 14 12 11 13 12 12 13 12 10 10 11 14 12 9 3 3 7 7 13 11 5 11 12 13 18 21 19 20 19 17 18 21 23 22 21 22 22
23 24 25 27 26 26 30 21 5 7 10 7 2 7 7 7 8 3 6 4 3 9 4 0 1 2 3 2 3 4 7 9 16 10 2 4 6 8 12 4 7 14 11 14 15 15 16 8 14 17 15 14 13 12 14 12 12 12 16 16 14 13 15 13 10 6 4 6 5 15 6 7 12 18 20 16 14 16 17 19 19 18 19 18 18 21 21 22
23 24 23 26 25 24 25 4 4 8 11 3 5 11 8 9 8 2 1 1 7 7 2 5 1 4 2 4 3 2 4 10 4 13 12 5 4 6 4 10 7 13 13 12 16 10 12 9 8 17 16 15 17 14 14 13 10 10 15 18 18 16 15 12 7 2 5 6 7 13 13 7 8 17 17 17 19 20 14 20 22 20 18 18 19 20 20 20
26 24 26 27 25 20 9 2 3 9 5 3 7 11 11 10 6 5 1 2 2 4 3 3 1 3 6 15 11 4 2 5 5 12 13 13 8 3 10 10 5 5 7 3 4 12 9 13 12 11 16 18 15 15 13 17 11 13 9 13 14 15 17 17 10 5 5 3 5 5 11 9 9 13 20 22 22 21 19 20 21 19 19 19 19 19 20 20
28 27 27 27 26 15 4 3 7 7 6 9 10 9 11 11 6 1 2 2 2 6 4 5 5 3 12 15 11 7 5 6 3 3 12 9 9 8 11 12 12 9 10 10 17 7 12 14 16 16 13 14 17 16 13 16 14 6 6 12 14 15 17 16 9 7 5 4 8 5 3 2 4 10 15 23 19 17 19 21 20 19 19 20 20 20 21 22
31 30 27 25 26 19 2 3 3 6 6 7 9 12 10 10 2 3 1 1 2 3 2 1 8 3 20 24 14 7 8 7 10 7 4 10 13 4 9 10 10 9 10 15 14 4 9 11 15 15 11 13 12 12 10 14 14 10 5 8 12 13 16 16 7 8 8 4 10 6 4 5 4 4 7 18 21 20 20 22 23 21 20 20 20 20 21 20
28 29 27 22 17 2 1 2 6 8 8 7 10 13 13 4 2 2 4 3 6 6 11 4 8 15 17 17 18 14 15 8 8 14 7 8 7 10 7 3 8 9 12 14 14 11 3 9 13 13 16 10 7 11 13 12 13 5 12 9 8 10 13 11 7 8 5 9 12 9 7 7 6 6 10 13 16 20 20 17 16 17 18 21 22 22 20 19
33 31 27 17 3 2 4 7 8 7 8 10 13 12 7 4 2 2 0 2 6 3 6 8 13 16 18 18 15 17 15 12 15 16 19 6 6 8 5 9 6 7 6 6 13 13 13 7 9 10 15 9 6 10 14 14 13 10 7 11 7 6 3 7 4 3 7 6 6 8 11 8 9 4 6 12 21 26 24 21 20 19 20 20 19 20 21 21
32 32 28 13 6 1 1 6 8 8 10 10 10 7 4 5 3 3 3 6 5 8 9 13 12 13 15 16 6 12 15 13 12 13 11 13 6 8 10 7 8 8 12 9 5 6 13 16 8 7 13 18 13 9 10 16 14 13 7 8 10 4 3 7 5 10 8 6 7 6 9 4 10 7 6 8 11 17 22 22 24 24 22 21 21 21 19 19
31 31 27 5 6 2 6 11 9 10 8 9 7 5 4 4 1 2 4 8 1 9 7 7 15 16 14 12 9 12 8 8 16 12 15 11 14 9 10 13 5 10 10 9 4 6 11 12 14 13 7 15 13 14 7 11 13 13 12 9 9 7 8 5 4 1 1 5 10 4 9 8 4 7 11 8 11 12 13 16 23 25 25 24 22 20 17 17
29 27 12 7 7 9 9 7 8 6 6 5 7 8 3 4 1 6 6 3 6 6 9 11 16 11 9 7 10 14 10 6 15 15 14 12 12 14 6 11 8 8 8 3 11 8 8 9 16 18 11 8 15 13 10 6 12 13 11 12 11 9 6 10 6 11 10 8 8 4 4 5 10 5 5 12 10 10 12 13 19 26 26 23 21 21 21 20
30 17 8 9 3 5 8 9 8 3 2 6 7 2 4 1 1 3 4 4 4 8 10 12 11 10 7 9 9 10 10 8 15 17 13 14 12 6 12 12 6 3 2 9 3 5 11 10 3 11 4 9 13 14 10 11 10 12 12 5 7 13 6 3 4 2 2 2 3 5 6 5 8 4 6 6 8 9 11 14 14 20 19 19 17 19 18 19
17 14 8 2 5 6 5 6 5 1 2 7 5 2 1 1 2 2 2 2 3 7 11 9 5 6 7 8 8 12 10 10 12 12 8 12 12 9 10 7 14 18 12 6 6 4 6 13 4 6 15 11 13 11 11 12 11 10 10 15 13 6 7 1 2 1 4 3 8 2 4 3 5 3 6 6 4 6 8 13 14 20 20 18 17 19 19 19
14 12 8 7 6 6 8 9 9 2 4 5 3 3 2 1 1 2 3 6 5 5 5 9 5 7 7 10 10 14 14 10 8 11 9 12 6 12 14 10 17 18 16 8 7 4 4 8 5 10 12 18 15 10 14 13 7 7 13 11 5 3 2 5 6 1 4 5 5 2 9 3 3 9 4 7 5 8 6 10 12 21 21 20 19 19 20 20
10 9 6 6 4 12 11 11 9 1 2 2 0 7 2 2 0 2 1 4 4 0 3 2 2 5 6 10 9 11 13 9 11 9 9 5 6 9 10 9 9 16 19 18 3 6 12 7 6 11 14 13 16 13 10 15 13 13 14 10 12 8 14 5 2 6 4 6 2 3 5 6 7 7 1 8 12 11 10 7 9 16 21 22 20 21 22 21
8 4 5 3 14 16 16 12 3 1 1 1 2 5 1 2 1 3 2 2 1 3 2 1 5 2 5 7 9 9 11 9 11 8 7 5 8 9 11 12 11 21 20 22 9 8 6 3 6 8 11 7 10 12 15 12 16 11 7 14 8 6 7 8 8 4 6 2 4 4 3 7 5 5 7 13 15 16 11 10 8 18 22 20 20 20 21 20
8 6 4 3 16 17 17 8 1 1 1 2 3 2 2 1 2 4 3 5 3 4 1 7 3 6 4 6 10 8 7 8 10 8 7 7 9 8 9 14 15 20 18 14 9 12 4 4 4 8 7 5 11 9 16 16 14 12 10 10 11 4 2 5 1 5 5 4 5 3 5 5 8 11 17 19 15 14 15 15 11 15 21 23 23 22 20 20
4 2 5 7 19 15 13 6 5 3 1 3 1 3 4 2 4 2 4 9 3 2 3 5 6 4 5 6 7 10 6 7 7 6 8 9 7 8 8 17 15 19 18 12 4 12 6 6 6 8 7 7 7 9 16 16 12 10 10 10 12 10 7 14 8 0 3 3 3 5 8 7 13 8 13 18 16 16 16 15 12 14 19 23 22 24 22 19
6 7 6 15 16 17 9 7 5 6 3 5 6 5 6 8 4 3 4 6 5 3 2 4 3 5 5 5 7 8 7 6 4 5 3 6 9 8 12 21 13 14 13 11 12 9 7 6 4 10 7 9 14 11 8 15 11 10 10 8 11 8 7 8 9 9 6 6 4 5 2 8 10 7 14 15 15 17 18 16 13 14 20 22 22 23 21 22
4 6 14 15 12 15 5 5 5 7 4 7 11 9 9 6 6 7 7 6 5 2 2 2 5 4 3 4 7 7 8 5 1 2 6 9 10 8 12 18 16 16 11 6 10 3 16 1 6 9 9 14 16 15 9 9 15 12 9 6 9 13 12 11 8 6 8 4 7 2 2 8 9 4 7 12 17 20 16 16 14 14 18 21 22 19 19 19
5 7 7 6 14 11 8 8 7 7 6 10 11 9 9 7 9 11 8 10 3 3 1 2 1 3 4 3 5 9 9 3 2 4 5 5 7 9 13 12 18 12 9 6 7 10 7 3 5 10 7 6 7 4 7 4 9 10 10 10 12 12 12 4 6 5 7 9 7 5 6 10 8 4 5 8 15 13 13 11 13 15 18 19 19 19 18 19
5 4 5 7 9 8 9 4 5 5 8 9 10 10 12 7 7 9 9 8 5 4 3 1 2 3 3 4 7 7 7 6 3 3 7 7 8 9 10 13 18 13 10 13 14 8 5 7 4 3 2 7 8 8 5 2 6 9 10 16 14 15 12 8 7 4 8 5 7 6 5 13 10 10 10 3 8 11 10 10 10 17 19 19 17 17 19 19
3 4 4 7 6 4 6 5 5 6 6 8 10 7 9 9 8 8 7 6 9 12 5 3 2 6 3 6 6 8 11 0 2 3 4 5 7 4 8 16 13 14 15 11 10 6 3 6 6 8 8 8 8 8 13 9 11 9 15 18 15 10 13 9 6 6 11 5 8 8 8 14 7 8 6 2 5 10 9 10 10 8 14 21 19 18 18 18
2 1 5 7 6 3 8 5 8 6 6 7 3 6 8 8 6 5 8 4 7 9 5 3 3 4 3 5 3 7 8 11 6 5 6 8 6 9 11 13 14 13 13 7 12 4 1 6 10 10 13 14 17 20 19 13 14 16 14 17 16 15 12 13 10 9 6 10 8 6 10 13 8 6 8 3 2 3 6 7 8 11 15 17 20 19 20 18
2 1 2 1 2 4 11 9 10 10 10 8 4 5 6 7 5 5 6 2 10 5 4 1 2 2 3 4 6 6 7 7 6 6 4 3 9 8 10 7 12 7 15 8 8 3 4 5 9 9 19 21 21 21 17 15 12 11 16 17 19 17 13 13 9 6 10 8 10 8 10 9 7 8 9 6 4 6 10 9 8 9 13 16 18 20 21 21
2 2 2 4 2 3 5 10 13 11 11 8 4 3 7 10 10 7 5 9 8 5 4 5 3 7 8 7 4 3 3 7 5 5 4 5 8 9 6 9 3 11 10 12 7 3 4 6 8 12 20 21 20 16 15 13 8 8 8 19 19 18 18 14 9 5 11 7 9 11 10 15 9 10 6 5 5 0 1 4 6 9 13 16 20 21 22 22
1 1 3 1 3 4 6 6 6 8 7 8 4 3 6 8 10 13 9 6 7 7 4 6 7 6 6 7 6 3 4 7 8 10 6 4 6 2 2 2 11 8 8 10 9 2 4 5 12 14 12 15 12 11 13 11 10 3 9 14 20 19 16 14 9 7 6 4 6 6 7 8 4 1 2 4 6 5 5 6 5 8 12 17 18 20 20 20
2 2 1 4 5 3 3 2 5 6 6 3 2 3 4 6 7 10 11 8 7 6 6 9 8 9 4 5 6 6 4 6 9 11 14 11 9 4 4 2 2 13 13 8 7 8 5 5 8 8 10 10 8 16 18 14 12 2 5 4 16 18 18 13 9 5 4 5 4 5 4 4 1 1 8 8 7 10 7 6 7 5 8 10 16 18 18 19
1 2 2 1 3 1 4 2 4 4 3 3 5 7 2 2 4 7 7 4 7 8 8 5 9 5 4 4 7 5 4 8 12 12 12 12 10 6 8 8 7 8 7 7 9 10 3 5 8 8 10 7 11 14 15 15 7 5 11 16 10 4 4 7 7 6 6 4 4 6 7 6 6 6 13 6 10 9 10 5 8 9 7 10 12 15 15 17
Wind_Direction
348 348 346 341 340 342 339 334 330 329 328 328 329 328 326 322 320 318 316 315 313 312 311 312 315 314 315 313 313 313 315 313 303 280 222 236 161 219 191 213 197 203 206 96 166 135 173 191 203 204 186 172 211 221 226 225 207 167 192 205 250 236 243 228 207 143 143 153 204 207 187 173 183 158 223 197 238 148 158 129 144 108 122 131 131 137 145 147
348 348 344 342 342 339 333 330 328 329 331 329 327 323 321 318 317 318 317 314 313 311 311 314 316 315 313 314 312 311 317 290 276 261 234 209 183 196 215 222 173 179 167 185 188 170 165 199 199 184 189 193 177 221 195 221 204 196 181 174 243 195 223 173 181 147 129 168 179 203 188 180 208 175 203 191 182 152 151 138 132 124 120 120 135 143 150 153
348 346 344 342 340 335 332 329 331 332 329 324 321 324 323 319 316 313 312 312 311 311 310 311 315 315 313 311 310 307 316 296 262 257 256 238 211 186 200 208 191 159 159 177 198 174 178 190 181 177 196 206 208 215 199 233 203 207 191 223 239 223 239 213 212 185 148 161 174 186 200 195 216 198 203 189 159 162 148 146 139 137 135 141 146 151 150 152
348 345 343 340 338 335 330 331 330 328 323 324 328 324 322 318 315 315 313 312 311 311 310 309 314 317 312 310 306 302 284 254 267 247 242 269 192 197 184 198 193 173 171 179 176 186 188 167 182 182 177 221 216 230 222 214 222 170 202 218 235 226 246 247 200 162 182 138 157 176 180 202 210 212 213 170 159 171 154 160 152 150 145 147 151 153 153 153
344 342 339 337 336 331 329 329 328 325 323 325 320 324 322 317 313 312 312 310 311 310 308 311 314 314 317 302 302 330 245 352 266 208 250 303 192 185 186 186 178 174 177 160 164 199 192 176 181 192 204 205 234 222 236 222 217 226 213 224 238 235 216 245 212 150 151 137 135 122 171 201 181 214 206 180 172 175 169 165 154 147 149 150 154 156 155 157
342 341 338 337 331 330 329 329 325 322 323 318 322 321 320 318 315 310 309 309 306 306 305 310 314 311 309 310 288 279 262 273 298 285 351 344 173 175 181 173 170 168 165 159 171 187 193 197 178 189 204 208 211 217 217 221 204 237 246 230 232 227 227 234 187 185 147 171 151 158 183 125 152 217 190 180 178 161 155 153 153 153 155 155 151 152 157 160
343 340 337 332 333 330 329 324 321 322 318 322 321 318 316 309 310 312 310 306 304 303 304 312 313 306 308 304 261 267 197 276 319 242 121 36 41 154 163 162 159 159 169 162 181 173 200 197 191 193 196 216 232 227 243 214 219 239 248 241 237 223 227 210 177 181 173 156 215 130 141 143 191 225 182 171 163 140 145 150 151 151 148 149 151 159 160 163
342 337 335 335 331 329 326 325 323 321 320 320 317 315 314 314 310 308 305 302 301 301 307 305 306 303 295 290 176 120 174 250 246 263 277 284 84 136 150 156 158 160 170 180 174 188 183 199 197 189 209 198 202 210 220 234 233 229 243 242 243 220 222 194 173 206 183 193 197 150 129 179 181 191 353 180 138 138 141 144 145 148 153 155 155 159 158 160
339 340 336 332 331 329 327 326 325 321 321 319 316 318 313 313 309 303 300 299 298 300 300 298 289 279 200 257 225 303 251 234 260 245 313 90 119 131 140 149 165 167 180 180 186 184 170 205 209 205 199 208 222 232 227 217 242 232 236 238 242 226 206 190 190 208 193 189 186 150 117 184 192 136 165 188 143 143 142 143 148 152 156 160 162 159 160 163
340 337 337 334 332 330 330 328 325 323 321 321 320 317 317 310 306 301 301 300 296 296 293 277 246 219 191 244 218 238 261 219 249 266 192 123 130 140 160 154 165 171 167 194 186 192 192 188 201 207 256 247 226 224 226 220 243 221 240 243 246 233 207 194 200 210 196 185 163 154 169 180 178 117 232 182 148 140 142 147 152 156 162 164 167 157 164 165
339 338 336 334 332 330 327 327 328 324 322 320 320 316 311 310 305 303 301 297 292 291 287 234 192 166 194 235 160 219 247 14 41 38 94 132 140 149 168 163 168 170 183 182 197 197 202 205 193 204 227 238 214 241 226 232 237 251 254 258 241 235 213 202 208 209 163 202 176 134 166 134 95 195 208 145 150 145 146 151 156 160 163 166 171 160 165 167
339 337 335 334 332 329 328 328 326 325 324 321 320 317 313 310 309 307 296 290 289 284 244 201 167 180 282 237 232 227 235 125 42 53 53 24 166 185 172 168 171 177 173 180 205 204 207 212 204 205 209 172 241 306 256 241 243 249 244 259 270 251 217 204 200 200 177 204 166 136 72 110 164 210 155 151 151 150 150 154 160 161 165 169 174 164 166 169
339 337 334 332 331 329 328 327 327 325 324 322 319 315 314 311 310 307 295 287 284 234 192 173 155 187 178 254 234 247 296 292 308 330 311 227 260 257 204 175 180 178 180 180 193 204 209 218 212 225 249 269 214 200 243 211 226 239 237 248 267 260 235 203 196 195 181 184 151 155 205 230 206 182 154 153 153 152 150 157 162 163 165 172 176 172 169 171
338 336 332 331 330 328 326 326 327 325 322 321 319 318 316 310 313 312 295 272 226 196 174 165 158 162 184 247 276 256 259 261 291 291 262 260 205 228 209 203 188 186 187 191 198 193 208 221 217 240 272 253 262 295 265 275 259 236 249 223 226 240 244 200 189 185 187 165 152 160 187 238 195 167 155 158 155 157 160 163 165 166 168 173 178 176 177 179
337 335 332 330 330 328 324 324 326 324 322 322 322 318 313 312 315 311 304 67 149 165 170 150 177 144 201 264 273 266 254 262 268 245 237 217 191 182 201 187 197 198 195 200 193 191 209 214 216 236 247 245 256 270 282 282 273 285 272 238 245 208 267 202 200 178 186 167 160 168 206 192 220 166 161 166 163 162 162 165 169 169 170 174 177 179 181 183
335 334 332 330 330 328 324 325 327 326 325 323 323 317 309 306 325 328 80 107 146 155 141 130 190 196 310 289 257 315 317 118 236 232 235 220 221 212 187 192 189 198 192 215 208 204 209 189 213 221 249 263 246 233 256 306 276 225 203 266 249 205 229 206 200 192 191 169 179 180 194 151 204 193 166 171 169 167 164 167 170 172 172 174 177 179 183 179
334 333 332 329 329 328 326 324 326 328 326 323 323 316 315 302 343 66 110 120 130 141 182 133 153 187 252 231 323 307 261 243 247 317 168 195 210 228 179 185 186 195 199 203 199 209 216 206 193 227 230 235 219 188 210 246 254 259 169 212 242 235 215 240 195 210 199 178 190 200 211 191 153 175 169 173 173 168 168 170 174 173 175 176 175 178 183 182
331 333 330 326 327 327 324 325 324 329 326 323 321 306 305 299 309 118 59 72 140 201 228 294 185 204 265 347 278 254 341 315 344 324 293 191 192 216 217 184 192 187 183 202 206 199 200 212 190 233 224 218 208 194 194 218 210 217 202 238 264 256 215 211 202 193 196 191 198 196 208 188 152 162 173 175 174 168 172 173 176 175 176 176 176 180 184 184
332 330 328 326 324 326 323 325 325 326 328 321 310 311 311 174 117 260 63 156 303 351 21 166 187 142 233 245 246 291 303 321 308 292 278 166 188 199 220 208 191 167 183 189 195 196 176 214 193 222 224 212 210 207 214 211 190 210 200 214 234 235 231 228 230 219 186 194 206 191 203 180 164 166 177 176 171 173 175 177 176 176 178 176 178 181 184 188
330 327 327 327 328 327 326 326 323 326 330 334 344 345 333 2 23 354 317 306 266 238 245 257 219 262 290 288 286 289 312 284 285 271 287 217 171 178 203 197 189 185 175 197 174 202 145 200 205 213 216 213 217 215 214 209 246 251 218 222 239 242 252 244 231 224 197 181 201 201 204 168 175 175 175 176 172 175 176 176 177 180 180 180 181 182 185 188
328 328 329 333 331 331 327 329 323 324 331 312 295 7 26 6 355 343 329 292 270 253 248 248 232 238 245 270 278 330 351 323 227 288 274 290 223 146 192 181 186 195 198 188 182 168 188 213 228 223 211 209 213 213 207 232 234 242 249 235 240 238 248 240 243 218 196 202 214 207 193 171 179 176 175 172 173 181 181 178 181 184 183 181 182 183 185 189
329 327 333 334 334 331 328 329 324 321 322 210 4 28 19 18 339 272 321 315 312 301 227 247 243 244 244 250 262 287 300 285 301 283 280 195 217 187 185 192 187 202 186 176 182 173 203 217 225 208 199 201 197 203 212 217 234 239 237 243 258 249 257 271 256 241 201 200 213 200 197 184 184 176 174 175 181 184 184 181 184 182 182 182 183 185 185 180
327 325 333 334 336 331 327 326 324 317 323 5 351 4 7 322 328 324 307 271 268 294 289 265 244 243 254 254 258 214 246 232 252 270 241 334 197 207 172 197 199 199 191 183 190 184 199 233 220 184 191 207 207 198 202 215 230 233 238 240 234 242 231 257 256 255 228 211 199 195 197 188 186 178 177 182 181 185 188 187 181 180 180 182 185 183 180 182
326 327 330 334 337 334 323 326 312 325 355 330 276 15 317 315 330 343 351 283 295 313 194 262 210 232 264 241 232 196 226 252 221 259 256 213 227 189 206 200 197 203 207 191 195 200 209 322 160 183 194 205 214 201 195 202 218 229 233 234 238 239 236 225 255 280 337 265 203 180 190 165 177 181 187 190 186 183 190 189 185 185 185 184 184 182 179 180
330 328 329 332 338 336 322 323 28 342 318 311 338 327 323 318 330 42 349 296 287 257 196 52 65 211 265 184 194 247 188 247 235 245 254 192 203 170 215 181 199 216 207 195 198 217 235 227 158 186 200 203 211 210 205 189 210 222 232 230 230 236 250 247 253 277 293 297 253 170 178 211 187 189 186 186 187 195 189 186 192 187 186 183 182 185 186 184
329 330 330 333 337 340 320 15 348 340 322 317 310 314 317 324 321 12 8 21 314 280 265 17 225 43 304 24 320 228 291 264 213 237 236 250 279 227 165 220 194 210 207 194 203 214 227 203 189 183 193 204 209 218 207 196 207 207 223 224 229 240 251 257 267 257 245 246 276 190 178 218 189 191 193 185 190 195 187 194 195 192 185 182 186 187 184 183
333 332 336 335 336 350 10 319 333 316 337 311 311 309 315 320 318 357 63 306 318 290 12 305 329 29 337 339 323 146 360 290 215 218 223 226 229 226 206 207 192 218 195 204 179 222 196 201 206 207 194 200 206 215 208 199 200 222 207 219 231 237 247 251 255 243 243 260 300 249 194 172 189 205 193 188 190 191 190 197 198 196 191 186 187 186 183 182
331 333 337 338 330 344 188 285 332 327 266 268 292 307 308 308 314 51 93 347 303 317 24 339 33 292 353 322 328 196 232 307 316 274 204 210 186 262 243 197 206 189 192 193 225 177 189 198 199 206 208 200 209 210 197 198 208 214 166 199 227 235 245 251 244 254 253 307 280 305 242 215 222 200 186 188 190 193 196 197 200 198 193 190 189 187 186 183
330 333 336 336 328 311 165 192 278 263 262 290 305 314 310 305 354 97 129 175 16 23 189 194 320 25 341 340 357 359 317 308 301 314 239 213 199 183 229 214 201 211 217 213 226 132 208 200 192 214 210 215 213 210 204 195 216 213 211 191 210 228 250 247 236 242 255 228 258 236 207 238 263 253 157 185 190 193 199 201 200 193 189 190 190 189 188 185
326 328 332 338 329 20 342 238 221 240 276 311 318 311 306 330 43 30 41 253 15 340 14 350 7 337 343 341 333 348 337 318 328 328 287 211 197 207 260 260 206 211 226 227 230 224 234 182 187 202 220 214 198 211 205 206 216 174 204 235 231 217 225 246 217 217 234 237 242 226 208 200 250 244 178 171 198 190 200 204 201 195 193 192 191 187 185 184
329 328 328 341 323 290 317 323 279 288 317 318 326 318 327 35 103 109 150 278 342 359 335 22 352 350 355 352 326 346 341 333 358 358 350 296 220 205 201 234 214 232 251 242 228 218 226 253 199 203 209 216 175 201 205 209 206 195 184 206 236 272 273 257 250 146 215 236 245 213 205 186 242 282 246 201 191 194 189 191 196 195 195 194 194 192 187 184
330 326 325 336 242 280 162 272 278 317 308 325 321 339 22 29 9 100 254 5 284 354 14 334 354 347 337 332 356 339 339 334 4 359 347 323 248 204 200 218 178 211 230 224 272 215 223 224 227 219 201 203 202 216 206 202 206 204 193 189 198 219 184 241 218 225 211 201 246 179 172 219 233 218 216 211 213 199 196 192 191 193 195 193 194 194 189 186
330 323 320 300 224 199 233 243 282 285 314 326 341 14 55 86 27 334 325 1 266 7 337 341 340 336 333 332 348 336 339 344 349 358 340 332 344 229 210 211 182 203 218 215 228 180 234 227 220 233 224 204 200 204 181 207 200 196 201 191 185 197 205 223 247 265 232 251 240 206 181 221 221 261 221 222 217 212 204 195 190 192 195 193 191 191 186 186
326 320 325 289 270 239 256 259 261 292 327 343 15 356 66 64 296 30 345 61 296 333 332 343 328 325 342 349 338 7 343 48 6 351 356 339 0 359 285 225 213 211 221 129 210 191 228 210 220 208 222 174 204 210 189 191 188 199 197 190 201 194 185 203 186 205 207 207 253 190 176 220 174 242 211 211 218 207 202 196 194 196 197 192 185 186 185 184
321 303 289 302 296 256 228 252 261 255 23 33 11 52 70 265 310 349 329 338 334 340 334 331 317 331 356 352 348 35 44 325 6 352 2 359 346 346 354 333 251 295 284 243 181 215 228 240 252 208 244 167 210 204 181 173 192 202 198 174 194 220 117 166 207 135 190 148 229 229 204 187 178 235 219 207 215 212 209 204 175 196 197 191 182 187 188 188
326 337 324 292 330 301 321 312 269 126 78 51 43 6 60 159 240 353 289 354 331 340 322 324 323 4 343 339 350 351 8 338 355 360 352 0 316 16 2 30 23 27 35 358 338 268 217 247 187 196 209 221 209 195 205 167 198 189 186 205 211 134 169 201 320 235 111 109 240 216 286 266 298 323 253 256 264 248 204 208 172 180 192 186 184 186 190 190
342 335 352 328 317 302 327 325 310 18 68 88 77 283 233 303 192 300 9 355 323 311 322 346 0 6 344 348 341 353 345 350 20 0 340 334 319 16 10 2 22 10 22 4 293 246 334 280 222 209 214 216 220 209 205 200 146 153 202 206 111 144 123 177 207 287 188 178 249 218 222 295 170 253 278 253 246 247 231 203 182 177 182 184 186 188 189 187
325 310 269 261 320 347 330 315 311 22 81 77 258 274 205 226 155 79 318 345 318 320 315 331 320 349 348 343 333 0 353 15 348 15 321 357 301 34 31 351 19 20 352 346 266 351 360 287 262 228 212 210 204 214 236 218 189 191 203 137 176 159 209 191 143 220 182 209 242 290 215 240 193 241 300 224 238 241 239 218 162 177 179 183 186 189 191 187
314 302 331 13 3 339 328 318 317 159 81 28 225 293 193 216 45 2 329 4 276 296 327 341 307 42 351 312 334 10 3 355 355 340 347 356 342 25 37 5 328 353 359 352 344 328 318 276 299 253 239 201 199 188 215 217 211 202 126 178 168 151 196 165 196 154 136 233 172 285 186 237 211 206 218 226 219 223 221 229 186 176 177 182 185 189 191 185
358 2 309 333 350 335 324 322 13 79 98 225 226 225 279 311 11 311 324 45 12 354 328 338 352 333 338 340 356 348 13 353 346 327 346 322 303 345 18 23 355 337 350 341 324 333 300 357 256 287 315 261 216 189 207 209 198 189 174 184 185 198 157 127 241 177 167 168 190 175 233 269 250 217 220 227 219 221 215 214 202 179 177 181 184 190 189 184
293 208 270 350 341 333 326 0 42 20 251 254 191 330 328 6 350 358 39 48 6 32 339 346 342 350 351 346 1 357 346 347 334 329 312 318 16 340 34 14 348 342 337 341 342 352 333 1 306 307 338 293 274 207 211 208 209 200 182 191 188 157 140 187 243 170 171 116 195 175 237 256 247 223 223 225 221 218 219 211 206 171 179 181 186 189 183 180
346 349 301 334 326 342 353 33 15 341 328 11 355 9 358 348 345 1 31 33 18 334 22 330 1 358 14 3 348 343 336 327 345 329 299 307 326 320 326 356 345 349 346 327 338 317 331 273 257 279 248 260 260 271 226 206 207 208 179 202 189 172 153 172 198 209 189 217 164 158 179 266 239 211 210 221 226 216 216 209 198 171 178 184 188 188 181 177
359 268 285 304 339 341 342 65 20 20 359 355 341 13 355 360 343 24 8 18 350 344 328 11 360 7 38 350 338 317 315 312 74 234 298 314 306 309 332 332 345 343 338 319 326 293 322 279 300 281 284 259 263 265 289 234 200 210 203 167 182 193 187 189 180 181 185 188 220 272 260 258 275 221 206 216 221 220 210 202 190 169 180 185 187 182 178 180
297 291 310 324 345 337 52 39 357 350 343 341 355 344 360 346 9 5 357 334 322 311 317 331 51 65 322 353 308 315 324 343 118 320 303 302 294 318 323 331 345 330 336 335 341 336 342 19 10 312 311 294 287 325 265 255 221 204 200 195 191 198 183 148 132 141 183 211 186 143 224 263 270 291 282 222 222 214 200 195 169 165 179 184 182 176 176 179
271 257 250 329 348 358 46 6 26 338 352 344 340 345 351 354 11 351 335 321 327 343 331 59 4 357 347 348 325 322 343 136 283 228 276 295 285 315 323 333 326 316 302 293 291 309 279 295 331 282 307 216 200 215 229 241 239 212 208 197 195 187 177 142 177 170 192 238 182 199 233 254 278 307 330 270 173 173 183 169 166 168 172 177 176 177 176 179
5 338 323 324 2 341 71 21 52 2 337 354 342 341 341 343 349 339 341 325 23 351 339 336 29 9 338 338 334 328 321 36 174 287 298 284 311 323 317 320 322 307 295 316 356 342 276 290 232 249 257 267 277 287 277 319 308 264 204 205 189 181 179 178 121 140 192 198 187 218 206 254 310 284 317 258 153 159 169 163 145 147 170 171 173 175 180 180
289 40 343 337 313 48 360 7 359 12 338 316 299 324 325 323 344 325 27 322 354 334 311 55 15 360 340 325 325 313 315 318 324 296 277 301 312 297 312 306 315 288 359 7 348 318 314 304 273 255 258 269 285 276 283 295 278 279 256 201 191 181 179 183 172 202 168 118 211 243 224 236 249 278 276 237 103 113 148 157 153 149 166 173 174 175 177 179
24 296 38 70 303 327 346 347 343 327 305 308 283 318 296 309 346 351 344 4 323 316 333 316 15 329 310 332 332 313 313 315 308 294 309 276 312 311 316 298 263 11 6 351 340 350 326 291 283 315 305 295 281 275 268 265 252 260 257 206 192 187 180 186 202 181 151 166 198 227 228 226 231 244 247 236 189 181 164 176 182 162 163 168 168 173 178 179
200 284 259 40 5 335 300 284 299 295 303 323 310 305 333 5 5 15 342 322 325 325 352 313 353 346 336 323 311 278 330 332 308 297 288 299 313 326 317 327 149 7 357 345 348 342 325 234 286 320 306 294 286 277 262 249 268 310 251 193 187 189 194 187 187 184 182 178 194 205 205 222 210 234 242 254 228 170 191 146 119 132 158 165 169 173 178 181
309 24 303 338 252 280 271 284 292 311 308 312 316 321 3 10 355 342 341 339 319 309 347 327 315 316 321 322 308 273 322 303 286 293 296 248 290 312 316 244 306 320 6 333 326 21 349 286 324 321 309 298 287 331 348 329 294 294 327 192 182 192 199 187 177 197 217 207 193 168 178 225 266 316 115 54 65 66 68 77 105 150 161 161 166 170 174 182
246 193 228 298 301 243 255 279 306 298 300 293 256 339 354 31 346 323 304 299 282 307 325 313 322 320 297 307 298 286 256 284 301 299 303 291 282 178 136 231 258 301 323 331 328 319 318 277 316 315 329 300 317 356 327 323 302 318 30 325 193 186 198 190 179 168 156 212 199 104 150 246 296 139 68 69 73 73 77 87 90 107 143 154 164 166 170 176
297 238 174 197 270 278 309 255 265 307 281 281 333 333 345 306 299 298 309 299 300 302 292 307 313 308 292 308 293 280 312 301 296 294 292 287 271 237 178 225 248 267 287 300 303 297 275 310 318 336 324 268 302 325 322 313 332 31 25 5 313 163 75 186 177 112 35 323 158 168 218 211 186 131 90 65 74 66 57 48 94 82 92 128 146 159 165 176